Weather History for Anaktuvuk Pass, AK

Change the Weather History Date:

Thursday, February 7, 2013

  Actual Average Record
Temperature  
Mean Temperature -26 °F -  
Max Temperature -18 °F 0 °F 24 °F (2003)
Min Temperature -32 °F -11 °F -40 °F (1999)
Degree Days  
Heating Degree Days 91    
Moisture  
Dew Point -29 °F    
Average Humidity 64    
Maximum Humidity 69    
Minimum Humidity 63    
Precipitation  
Precipitation 0.00 in - - ()
Sea Level Pressure  
Sea Level Pressure 29.44 in    
Wind  
Wind Speed 3 mph (North)    
Max Wind Speed 9 mph    
Max Gust Speed -    
Visibility 9 miles    
Events      
Averages and records for this station are not official NWS values.
T = Trace of Precipitation, MM = Missing Value Source: NWS Daily Summary

Daily Weather History Graph

Daily Weather History Graph

Search for Another Location

Airport:

Trip Planner

Search our weather history database for the weather conditions in past years. The results will help you decide how hot, cold, wet, or windy it might be!

Date:

Astronomy

Feb. 07, 2013 Rise Set
Actual Time 9:57 AM AKST 4:46 PM AKST
Civil Twilight 8:50 AM AKST 5:52 PM AKST
Nautical Twilight 7:42 AM AKST 7:01 PM AKST
Astronomical Twilight 6:38 AM AKST 8:05 PM AKST
Moon 8:47 AM AKST (2/7) 1:25 PM AKST (2/7)
Length of Visible Light 9h 02m
Length of Day
6h 48m
Waning Crescent, 8% of the Moon is Illuminated
Feb 7
Waning Crescent
Feb 9
New
Feb 17
First Quarter
Feb 25
Full
Mar 4
Last Quarter

Hourly Weather History & Observations

Time (AKST) Temp. Windchill Dew Point Humidity Pressure Visibility Wind Dir Wind Speed Gust Speed Precip Events Conditions
12:16 AM -29.2 °F - - N/A% 29.61 in 10.0 mi Calm Calm - N/A   Clear
12:36 AM -32.8 °F - - N/A% 29.61 in 10.0 mi Calm Calm - N/A   Partly Cloudy
12:56 AM -31.0 °F -46.1 °F - N/A% 29.61 in 10.0 mi North 4.6 mph - N/A   Partly Cloudy
1:16 AM -29.2 °F -46.2 °F - N/A% 29.61 in 10.0 mi North 5.8 mph - N/A   Partly Cloudy
1:36 AM -29.2 °F -46.2 °F - N/A% 29.60 in 10.0 mi North 5.8 mph - N/A   Mostly Cloudy
1:56 AM -29.2 °F -46.2 °F - N/A% 29.59 in 10.0 mi North 5.8 mph - N/A   Scattered Clouds
2:16 AM -29.2 °F - - N/A% 29.59 in 10.0 mi Calm Calm - N/A   Scattered Clouds
2:36 AM -31.0 °F -43.3 °F - N/A% 29.58 in 10.0 mi North 3.5 mph - N/A   Mostly Cloudy
2:56 AM -29.2 °F -46.2 °F - N/A% 29.57 in 10.0 mi NNE 5.8 mph - N/A   Mostly Cloudy
3:16 AM -29.2 °F - - N/A% 29.57 in 10.0 mi Calm Calm - N/A   Scattered Clouds
3:36 AM -29.2 °F -41.2 °F - N/A% 29.57 in 10.0 mi North 3.5 mph - N/A   Partly Cloudy
3:56 AM -31.0 °F - - N/A% 29.57 in 10.0 mi Calm Calm - N/A   Partly Cloudy
4:16 AM -29.2 °F -48.1 °F - N/A% 29.55 in 10.0 mi NNE 6.9 mph - N/A   Partly Cloudy
4:36 AM -29.2 °F -46.2 °F - N/A% 29.54 in 10.0 mi North 5.8 mph - N/A   Clear
4:56 AM -29.2 °F -46.2 °F - N/A% 29.55 in 10.0 mi NNE 5.8 mph - N/A   Clear
5:16 AM -31.0 °F -46.1 °F - N/A% 29.54 in 10.0 mi North 4.6 mph - N/A   Clear
5:36 AM -31.0 °F - - N/A% 29.54 in 10.0 mi Calm Calm - N/A   Clear
5:56 AM -31.0 °F - - N/A% 29.53 in 10.0 mi Calm Calm - N/A   Scattered Clouds
6:16 AM -29.2 °F - - N/A% 29.52 in 10.0 mi Calm Calm - N/A   Overcast
6:36 AM -27.4 °F - - N/A% 29.52 in 10.0 mi Calm Calm - N/A   Overcast
6:56 AM -27.4 °F - - N/A% 29.51 in 10.0 mi Calm Calm - N/A   Overcast
7:16 AM -25.6 °F -37.1 °F - N/A% 29.50 in 10.0 mi North 3.5 mph - N/A   Overcast
7:36 AM -25.6 °F -37.1 °F - N/A% 29.50 in 10.0 mi North 3.5 mph - N/A   Mostly Cloudy
7:56 AM -25.6 °F -39.8 °F - N/A% 29.49 in 10.0 mi North 4.6 mph - N/A   Mostly Cloudy
8:16 AM -25.6 °F -37.1 °F - N/A% 29.49 in 10.0 mi North 3.5 mph - N/A   Overcast
8:36 AM -25.6 °F -37.1 °F - N/A% 29.49 in 10.0 mi North 3.5 mph - N/A   Overcast
8:56 AM -25.6 °F -39.8 °F - N/A% 29.48 in 10.0 mi North 4.6 mph - N/A   Overcast
9:16 AM -27.4 °F -39.2 °F - N/A% 29.47 in 8.0 mi North 3.5 mph - N/A   Overcast
9:36 AM -25.6 °F - - N/A% 29.47 in 10.0 mi Calm Calm - N/A   Overcast
9:56 AM -27.4 °F -41.9 °F - N/A% 29.46 in 10.0 mi North 4.6 mph - N/A   Scattered Clouds
10:16 AM -29.2 °F -41.2 °F - N/A% 29.46 in 8.0 mi North 3.5 mph - N/A   Clear
10:36 AM -29.2 °F -41.2 °F - N/A% 29.45 in 9.0 mi NNE 3.5 mph - N/A   Clear
10:56 AM -27.4 °F - - N/A% 29.44 in 10.0 mi Calm Calm - N/A   Clear
11:16 AM -27.4 °F -41.9 °F - N/A% 29.44 in 10.0 mi North 4.6 mph - N/A   Clear
11:36 AM -27.4 °F - - N/A% 29.44 in 8.0 mi Calm Calm - N/A   Clear
11:56 AM -27.4 °F -39.2 °F - N/A% 29.43 in 8.0 mi North 3.5 mph - N/A   Mostly Cloudy
12:16 PM -25.6 °F -39.8 °F - N/A% 29.42 in 5.0 mi North 4.6 mph - N/A   Overcast
12:36 PM -25.6 °F -39.8 °F - N/A% 29.42 in 10.0 mi North 4.6 mph - N/A   Overcast
12:56 PM -25.6 °F -37.1 °F - N/A% 29.41 in 10.0 mi NNE 3.5 mph - N/A   Overcast
1:16 PM -23.8 °F - - N/A% 29.41 in 7.0 mi Calm Calm - N/A   Overcast
1:36 PM -22.0 °F -35.6 °F -29.2 °F 69% 29.41 in 5.0 mi NW 4.6 mph - N/A   Overcast
1:56 PM -20.2 °F - -27.4 °F 69% 29.40 in 7.0 mi Calm Calm - N/A   Overcast
2:16 PM -20.2 °F -33.5 °F - N/A% 29.39 in 7.0 mi NNE 4.6 mph - N/A   Overcast
2:36 PM -22.0 °F -35.6 °F - N/A% 29.39 in 4.0 mi North 4.6 mph - N/A   Overcast
2:56 PM -22.0 °F -37.7 °F - N/A% 29.38 in 7.0 mi NNE 5.8 mph - N/A   Overcast
3:16 PM -23.8 °F -39.8 °F - N/A% 29.38 in 10.0 mi North 5.8 mph - N/A   Overcast
3:36 PM -23.8 °F -37.7 °F - N/A% 29.37 in 7.0 mi North 4.6 mph - N/A   Overcast
3:56 PM -22.0 °F -35.6 °F - N/A% 29.37 in 9.0 mi North 4.6 mph - N/A   Overcast
4:16 PM -22.0 °F -35.6 °F - N/A% 29.36 in 10.0 mi North 4.6 mph - N/A   Overcast
4:36 PM -22.0 °F -35.6 °F - N/A% 29.36 in 10.0 mi North 4.6 mph - N/A   Overcast
4:56 PM -22.0 °F -35.6 °F - N/A% 29.35 in 8.0 mi North 4.6 mph - N/A   Overcast
5:16 PM -22.0 °F -35.6 °F - N/A% 29.35 in 8.0 mi North 4.6 mph - N/A   Overcast
5:36 PM -22.0 °F -35.6 °F - N/A% 29.34 in 10.0 mi North 4.6 mph - N/A   Overcast
5:56 PM -22.0 °F -33.0 °F - N/A% 29.34 in 10.0 mi North 3.5 mph - N/A   Overcast
6:16 PM -22.0 °F -37.7 °F - N/A% 29.34 in 10.0 mi NNE 5.8 mph - N/A   Overcast
6:36 PM -20.2 °F -37.3 °F - N/A% 29.33 in 10.0 mi NNE 6.9 mph - N/A   Overcast
6:56 PM -22.0 °F -35.6 °F - N/A% 29.33 in 10.0 mi NNE 4.6 mph - N/A   Overcast
7:16 PM -22.0 °F -35.6 °F - N/A% 29.33 in 10.0 mi NNE 4.6 mph - N/A   Overcast
7:36 PM -20.2 °F -33.5 °F - N/A% 29.32 in 10.0 mi North 4.6 mph - N/A   Overcast
7:56 PM -20.2 °F -33.5 °F - N/A% 29.32 in 10.0 mi North 4.6 mph - N/A   Overcast
8:16 PM -20.2 °F -35.5 °F - N/A% 29.31 in 10.0 mi North 5.8 mph - N/A   Overcast
8:36 PM -20.2 °F -35.5 °F - N/A% 29.31 in 10.0 mi NNE 5.8 mph - N/A   Overcast
8:56 PM -20.2 °F -37.3 °F -29.2 °F 63% 29.31 in 10.0 mi NNE 6.9 mph - N/A   Overcast
9:16 PM -20.2 °F -37.3 °F -29.2 °F 63% 29.30 in 10.0 mi NNE 6.9 mph - N/A   Overcast
9:56 PM -20.2 °F -37.3 °F -29.2 °F 63% 29.30 in 10.0 mi NNE 6.9 mph - N/A   Overcast
10:16 PM -20.2 °F -38.8 °F -29.2 °F 63% 29.30 in 10.0 mi NNE 8.1 mph - N/A   Overcast
10:36 PM -20.2 °F -40.1 °F -29.2 °F 63% 29.30 in 10.0 mi NE 9.2 mph - N/A   Overcast
10:56 PM -20.2 °F -37.3 °F -29.2 °F 63% 29.30 in 10.0 mi NNE 6.9 mph - N/A   Overcast
11:16 PM -20.2 °F -35.5 °F -29.2 °F 63% 29.30 in 10.0 mi North 5.8 mph - N/A   Overcast
11:36 PM -20.2 °F -35.5 °F -29.2 °F 63% 29.30 in 10.0 mi NNE 5.8 mph - N/A   Overcast
11:56 PM -18.4 °F -36.6 °F -27.4 °F 63% 29.30 in 10.0 mi NNE 8.1 mph - N/A   Overcast